Location: Birdton
(46.1166°N, 66.8166°W)
Time: 09:10:03
(UTC-03:00)

Daily predictions for brighter satellites

Satellite Brightness Start Highest point End
(mag) Time Altitude Azimuth Time Altitude Azimuth Time Altitude Azimuth
Cosmos 1452 Rocket 3.9 20:42:34 10° SSW 20:47:51 75° WNW 20:53:10 10° NNE
Cosmos 1655 Rocket 4.1 20:42:15 10° S 20:48:32 84° E 20:54:57 10° N
Abrixas rocket 2.7 20:47:43 10° WNW 20:50:58 57° N 20:54:13 10° E
COSMOS 2428 4.3 20:49:25 10° ESE 20:51:59 13° E 20:54:34 10° ENE
BREEZE M DEB (TANK) 4.5 20:38:54 10° W 20:52:52 72° NNW 20:56:50 10° ENE
Meteor 1-19 Rocket 4.4 20:48:11 10° N 20:54:06 89° E 20:59:53 10° S
NOSS 2-3 (C) 4.0 20:51:12 10° SSW 20:55:51 61° ESE 21:01:20 10° NE
USA 215 4.1 20:50:48 10° NE 20:57:07 53° NNW 21:03:26 10° W
Cosmos 220 Rocket 4.1 20:55:47 10° NNW 21:00:04 59° ENE 21:04:21 10° SSE
Resurs 1-3 3.6 20:57:47 10° SSE 21:02:11 89° WSW 21:06:36 10° NNW
Cosmos 1607 4.1 20:56:06 10° NW 21:02:36 87° SW 21:09:04 10° SSE
EXPRESS MD2 2.7 21:00:18 10° WSW 21:02:48 86° SSE 21:07:05 10° ENE
Meteor 1-5 Rocket 4.4 20:59:46 10° SSE 21:04:45 43° E 21:09:46 10° NNE
USA 238 DEB 4.0 20:59:44 10° NW 21:06:45 59° NE 21:13:37 11° ESE
USA 238 4.1 20:59:50 10° NW 21:06:50 58° NE 21:13:42 11° ESE
Cosmos 1025 Rocket 3.6 21:05:29 10° N 21:09:28 37° ENE 21:13:27 10° SE
CZ-4B DEB 4.2 21:10:53 13° ESE 21:12:27 18° ENE 21:14:30 10° NNE
Meteor 2-4 Rocket 3.8 21:07:41 10° N 21:13:17 89° W 21:19:02 10° S
Cosmos 1300 Rocket 3.4 21:09:40 10° S 21:13:56 71° E 21:18:15 10° NNE
Cosmos 1536 2.8 21:12:09 10° S 21:16:12 74° E 21:20:16 10° NNE
ATLAS 3B R/B 2.7 21:09:50 10° NW 21:16:38 71° NE 21:22:42 12° SE
Okean 1 Rocket 3.2 21:12:43 10° S 21:16:56 51° E 21:21:13 10° NNE
Spot 2 Rocket 3.8 21:12:53 10° S 21:17:58 71° WSW 21:23:04 10° NNW
USA 186 2.6 21:16:55 10° S 21:20:14 54° W 21:23:32 10° NNW
Cosmos 1939 Rocket 2.8 21:16:39 10° SSE 21:20:35 71° ENE 21:24:29 10° N
Tiangong 1 3.3 21:24:01 10° WSW 21:25:24 13° SSW 21:26:46 10° S
SL-8 R/B 3.7 21:22:47 10° WNW 21:27:35 76° SSW 21:31:15 17° ESE
Helios 1A 3.2 21:24:28 11° SSE 21:28:26 56° ENE 21:32:36 10° N
ERS-1 Rocket 3.6 21:26:57 15° SE 21:30:44 39° ENE 21:35:23 10° N
USA 267 4.3 21:25:02 10° SSE 21:31:05 38° SW 21:37:08 10° WNW
Molniya-1 4.2 21:30:31 10° NNW 21:33:02 42° NE 21:34:56 21° ESE
ARGOS 4.0 21:31:00 16° ESE 21:34:33 33° ENE 21:39:19 10° N
Okean 1-7 Rocket 3.6 21:30:50 10° N 21:35:20 67° E 21:39:30 12° SSE
NOSS 2-3 (D) 4.2 21:31:03 10° SW 21:35:49 73° NW 21:41:31 10° NE
Cosmos 2266 Rocket 3.9 21:30:03 10° S 21:36:05 89° ESE 21:42:11 10° N
YAOGAN 6 2.4 21:35:42 13° SSE 21:38:51 83° ENE 21:42:22 10° N
Resurs 01 Rocket 3.4 21:39:12 10° SSW 21:43:12 32° W 21:47:12 10° NNW
NOSS 3-2 (C) 4.5 21:36:24 10° NNW 21:43:28 49° NE 21:49:20 18° ESE
Cosmos 2263 Rocket 3.4 21:40:06 10° NW 21:45:24 41° WSW 21:50:40 10° S
Meteor 1-29 3.5 21:42:30 10° NNE 21:45:42 36° E 21:47:00 26° SE
Envisat 3.9 21:42:36 10° S 21:47:29 48° W 21:52:26 10° NNW
Cosmos 2315 Rocket 4.0 21:42:10 10° N 21:48:28 85° E 21:54:47 10° S
Cosmos 1844 Rocket 2.9 21:46:08 10° NNW 21:51:44 56° ENE 21:55:09 23° SE
Nadezhda 2 Rocket 4.4 21:47:04 10° S 21:53:12 74° E 21:59:28 10° NNE
Cosmos 2278 Rocket 3.5 21:48:34 10° N 21:53:23 27° NE 21:56:20 18° E
Cosmos 1743 4.2 21:54:19 20° E 21:54:19 20° E 21:56:47 10° NE
SPOT 5 3.6 21:52:36 24° ESE 21:54:40 35° ENE 21:58:48 10° N
Cosmos 2322 Rocket 3.6 21:50:04 10° SW 21:55:27 42° NW 22:00:52 10° NNE
USA 245 4.3 21:54:27 26° ESE 21:56:17 37° ENE 21:59:53 10° N
Lacrosse 5 2.1 21:51:40 10° WSW 21:56:44 72° NW 22:01:50 10° NE
MetOp-B 4.2 21:56:23 22° SE 21:59:45 61° ENE 22:05:02 10° N
ATLAS 2AS CENTAUR R/B 3.3 21:54:41 10° SW 22:02:30 77° NW 22:10:43 10° NE
CENTAUR R/B 4.1 21:56:35 10° NNW 22:03:25 35° NNE 22:09:25 15° E
Helios 1B rocket 2.3 21:59:47 10° NNE 22:03:54 82° ESE 22:08:01 10° SSW
Cosmos 1515 3.8 22:01:51 10° NNW 22:05:39 71° W 22:08:00 22° S
Cosmos 1892 Rocket 3.5 22:02:18 10° N 22:06:44 67° E 22:08:44 31° SSE
Cosmos 2237 4.1 22:01:18 10° SSW 22:06:57 72° ESE 22:12:39 10° NNE
H-2A R/B 2.5 22:06:16 28° ESE 22:08:13 41° ENE 22:12:50 10° N
Cosmos 1302 Rocket 4.0 22:03:52 10° S 22:09:05 64° ESE 22:14:19 10° NNE
Cosmos 1745 Rocket 4.4 22:06:16 25° SE 22:09:10 41° E 22:14:53 10° NNE
SL-16 R/B 4.0 22:04:05 10° WSW 22:09:14 34° NW 22:14:24 10° NNE
Cosmos 2219 Rocket 2.8 22:08:26 28° SE 22:10:13 34° ESE 22:15:16 10° NE
Cosmos 1486 Rocket 4.0 22:07:37 10° NNW 22:12:53 88° WSW 22:15:43 28° SSE
NOSS 3-4 (A) 4.0 22:09:42 18° SSE 22:13:28 34° ESE 22:19:09 10° NE
NOSS 3-4 (C) 4.0 22:10:15 21° SSE 22:13:34 34° ESE 22:19:15 10° NE
SeaSat 1 2.9 22:14:41 10° NNE 22:19:34 64° WNW 22:24:27 10° SW
Cosmos 1544 Rocket 3.5 22:20:13 36° SSE 22:21:56 65° E 22:26:21 10° NNE
Cosmos 1500 3.4 22:19:38 20° SSW 22:22:11 73° W 22:26:05 10° N
Cosmos 2322 4.0 22:16:41 10° SW 22:22:19 71° WNW 22:28:01 10° NNE
SAR-Lupe-4 3.9 22:23:05 36° SSW 22:24:19 60° WSW 22:27:53 10° NNW
Cosmos 2360 Rocket 2.9 22:21:05 10° SW 22:26:36 55° WNW 22:32:09 10° NNE
Terra 2.9 22:25:53 27° E 22:26:36 28° ENE 22:30:38 10° N
Abrixas rocket 2.5 22:24:29 10° WNW 22:27:31 56° SW 22:27:31 56° SW
Cosmos 405 3.2 22:27:10 34° SSW 22:28:35 71° WNW 22:32:12 10° N
Aureole 2 Rocket 4.1 22:31:50 21° NE 22:31:50 21° NE 22:33:01 10° NNE
OPS 6432 4.5 22:27:04 10° SW 22:30:30 68° NW 22:33:31 10° NE
Cosmos 1455 Rocket 2.9 22:32:44 45° S 22:34:03 76° E 22:38:32 10° NNE
Cosmos 1975 2.9 22:33:35 35° SSW 22:35:11 74° W 22:39:12 10° N
COSMOS 2428 2.6 22:29:36 10° SSW 22:35:20 85° ESE 22:41:06 10° NNE
Cosmos 1844 3.7 22:30:59 10° NNW 22:36:42 88° WSW 22:38:50 41° SSE
GP-B 4.0 22:35:11 10° NNE 22:38:51 34° ENE 22:38:51 34° ENE
Cosmos 1241 Rocket 4.5 22:34:13 10° SSW 22:40:46 88° SE 22:47:17 10° NE
Cosmos 724 4.3 22:39:23 10° NW 22:45:18 77° WSW 22:47:10 45° SSE
Meteor 1-12 Rocket 4.3 22:42:25 20° SSW 22:46:23 80° W 22:52:06 10° N
Cosmos 2333 Rocket 2.2 22:47:11 49° SSE 22:48:09 55° ESE 22:53:40 10° NE
Cosmos 1354 Rocket 4.0 22:47:00 10° NNW 22:52:22 78° WSW 22:53:45 50° S
Cosmos 2333 4.3 22:48:09 10° SSW 22:53:49 77° WNW 22:59:27 10° NNE
NOSS 3-2 (A) 4.1 22:46:52 10° NW 22:54:18 69° WSW 22:57:47 37° SSE
Nadezhda 1 Rocket 4.0 22:49:19 10° N 22:55:41 88° W 22:58:07 41° S
Cosmos 2237 Rocket 2.6 23:00:25 44° E 23:00:25 44° E 23:05:09 10° NE
Cosmos 1437 Rocket 2.9 23:01:26 70° WNW 23:01:26 70° WNW 23:05:22 10° N
Nimbus 7 Rocket 4.3 22:59:25 10° NNE 23:05:20 76° ESE 23:06:50 51° S
ATLAS 3B R/B 4.1 23:01:23 10° WNW 23:06:41 26° WSW 23:09:58 17° SSW
Cosmos 1980 3.7 23:06:58 57° ESE 23:06:58 57° ESE 23:12:25 10° NNE
CARTOSAT-1 3.8 23:07:30 60° NE 23:07:30 60° NE 23:11:24 10° N
Cosmos 1666 3.2 23:07:56 59° NNW 23:07:56 59° NNW 23:11:11 10° N
DMSP B5D2-2 3.9 23:02:12 10° NNE 23:07:28 69° ESE 23:07:47 67° SE
Cosmos 972 Rocket 4.4 23:08:17 51° E 23:08:17 51° E 23:14:04 10° NNE
SPOT 1/Viking Rocket 3.8 23:08:48 49° SSW 23:09:59 64° WSW 23:15:12 10° NNW
Cosmos 1818 4.0 23:05:30 10° SW 23:10:52 61° NW 23:16:18 10° NNE
ARGOS 4.2 23:12:31 27° SW 23:14:43 38° W 23:19:43 10° NNW
Cosmos 1709 Rocket 3.9 23:15:59 60° SE 23:16:42 65° E 23:22:55 10° NNE
Cosmos 1602 Rocket 3.8 23:13:02 10° NNW 23:17:09 65° WNW 23:17:09 65° WNW
H-2A R/B 3.0 23:20:29 41° NE 23:20:29 41° NE 23:23:57 10° N
Cosmos 2181 Rocket 4.0 23:13:50 10° N 23:20:16 65° E 23:21:06 59° ESE
EXPRESS MD2 4.5 23:17:23 10° WNW 23:21:10 58° N 23:24:52 26° ENE
USA 81 4.0 23:17:55 10° N 23:23:11 74° E 23:23:11 74° E
BREEZE-M DEB (TANK) 4.2 23:04:31 10° WSW 23:25:25 85° NNW 23:28:45 25° ENE
ATLAS CENTAUR R/B 2.9 23:22:14 10° NNW 23:24:36 27° NNE 23:24:36 27° NNE
Cosmos 2297 3.9 23:21:47 10° NNW 23:27:23 56° ENE 23:27:42 56° ENE
Cosmos 1842 4.2 23:24:25 10° NNW 23:27:25 46° NW 23:27:25 46° NW
BREEZE-M DEB (TANK) 4.4 23:23:49 10° W 23:28:41 73° N 23:51:07 10° E
Cosmos 1743 4.3 23:29:25 30° W 23:29:35 30° WNW 23:33:00 10° N
SPOT 5 4.3 23:31:51 27° WSW 23:32:46 28° W 23:36:46 10° NW
COSMOS 2455 3.1 23:27:52 10° NNW 23:33:49 55° NE 23:34:25 53° ENE
NOSS 3-2 (C) 4.4 23:27:23 10° NW 23:34:39 53° WSW 23:36:46 43° SSW
Cosmos 1844 Rocket 4.3 23:30:44 10° NW 23:35:14 25° WSW 23:36:49 22° SW
CZ-2C R/B 4.3 23:36:21 27° NE 23:36:21 27° NE 23:39:50 10° N
Cosmos 2278 Rocket 2.4 23:32:17 10° NNW 23:37:51 58° WSW 23:38:10 57° SW
DNEPR-1 R/B 4.1 23:33:42 10° NNW 23:37:25 60° N 23:37:25 60° N
NOSS 0 Rocket 4.0 23:38:09 47° SW 23:40:05 78° WNW 23:46:22 10° NNE
Lacrosse 5 3.8 23:36:03 10° WNW 23:40:25 28° NNW 23:44:48 10° NE
CZ-2C R/B 4.3 23:42:35 10° NE 23:45:17 22° ENE 23:45:17 22° ENE
H-2A R/B 3.5 23:46:54 26° WSW 23:47:45 27° W 23:51:57 10° NW
Cosmos 968 Rocket 3.9 23:48:13 10° NNW 23:52:42 57° WNW 23:52:42 57° WNW
Cosmos 2219 Rocket 3.3 23:50:02 17° WSW 23:54:04 42° NW 23:59:26 10° NNE
